Terug naar catalogus

STARLINK-6369

ActiefCommunicatieVLEO
NORAD 57374·PAYLOAD·🇺🇸 United States

Gelanceerd Jul 16, 2023 vanaf Cape Canaveral Space Force Station

Loading…

Volgende Passages (komende 24 uur)

TLE

VersSource: CelesTrak SupGP

Epoch: Sep 14, 2026, 21:56 UTC

1 57374C 23099AY  26257.91437500  .00022112  00000+0  80110-3 0  2577
2 57374  42.9992 235.1138 0000936 252.1581 208.7880 15.27559966    17

Volg STARLINK-6369 in realtime met AllMySat

Download on the App Store